Regional Weather Roundup
Issued by NWS

Home | Current Version | Previous Version | Graphics & Text | Print | Product List | Glossary On
Versions: 1 2 3 4 5 6 7 8 9 10 11 12 13 14 15 16 17 18 19 20 21 22 23 24 25 26 27 28 29 30 31 32 33 34 35 36 37 38 39 40 41 42 43 44 45 46 47 48 49 50
000
ASUS45 KCYS 312010
RWRWY

WYOMING REGIONAL WEATHER ROUNDUP
NATIONAL WEATHER SERVICE CHEYENNE WY
200 PM MDT THU JUL 31 2014

NOTE:  "FAIR" INDICATES FEW OR NO CLOUDS BELOW 12,000 FEET
WITH NO SIGNIFICANT WEATHER AND/OR OBSTRUCTIONS TO VISIBILITY.

WYZ001-312100-
YELLOWSTONE NATIONAL PARK

CITY           SKY/WX    TMP DP  RH WIND       PRES   REMARKS
LK YELLOWSTONE   N/A     68  40  35 VRB7      30.44F
W YELLOWSTONE  NOT AVBL

$$
WYZ002>013-054>058-071-098>099-312100-
NORTHERN WYOMING

CITY           SKY/WX    TMP DP  RH WIND       PRES   REMARKS
JACKSON        SUNNY     77  41  27 CALM      30.32F
CODY           MOSUNNY   81  39  22 N6        30.21F
GREYBULL       SUNNY     88  34  14 VRB5      30.13F
WORLAND        SUNNY     89  36  15 N8        30.15F
SHERIDAN       SUNNY     91  38  15 W5        30.14F
BUFFALO        SUNNY     84  32  15 VRB7      30.22F
GILLETTE       SUNNY     85  38  18 SW10      30.18F
HULETT         FAIR      82  41  23 MISG      30.20
NEWCASTLE      FAIR      82  34  17 SW7       30.20

$$
WYZ014>020-022>026-101>103-312100-
CENTRAL WYOMING

CITY           SKY/WX    TMP DP  RH WIND       PRES   REMARKS
BIG PINEY      SUNNY     71  36  27 VRB5      30.39F
PINEDALE       CLEAR     73  36  25 SW6       30.38F
DUBOIS         FAIR      73  32  21 SE7       30.36S
LANDER         SUNNY     81  31  16 CALM      30.26F
RIVERTON       SUNNY     79  36  21 SE8       30.28F
CASPER         SUNNY     81  24  12 SE8       30.25F
DOUGLAS        SUNNY     82  35  18 S9        30.25F

$$
WYZ021-027>030-104>119-312100-
SOUTHERN WYOMING

CITY           SKY/WX    TMP DP  RH WIND       PRES   REMARKS
EVANSTON       MOSUNNY   71  44  37 NE9G23    30.36F
KEMMERER       MOCLDY    70  41  35 E7G17     30.40F
FORT BRIDGER   FAIR      69  47  45 NE5       30.41S
ROCK SPRINGS   MOSUNNY   76  38  25 NE10      30.35S
DIXON          FAIR      75  42  31 SE5       30.31F
RAWLINS        SUNNY     75  38  26 NE10      30.34F
SARATOGA       FAIR      72  41  33 N6        30.35F
LARAMIE        MOSUNNY   69  42  37 SW5       30.37S
CHEYENNE       MOSUNNY   75  42  30 VRB6      30.32S
TORRINGTON     SUNNY     83  44  25 VRB5      30.19F
PINE BLUFFS    MOCLDY    77  45  31 SE6       30.28S

$$



USA.gov is the U.S. government's official web portal to all federal, state and local government web resources and services.